"read_dt","SO2 (ppb)","flags","PMT voltage (V)","lamp voltage (V)","lamp intensity (Hz)","internal temp (C)","react chamber temp (C)","sample flow (l/min)","pres (mmHg)","SO2 bkg (ppb)","SO2 coefficient"
2016-05-19 00:00:00,1800E-3,5C000400,-0724,0834,12126,028.5,045.5,0.254,762.0,01.16,0.508
2016-05-19 00:01:00,1662E-3,5C000400,-0724,0834,11957,028.4,045.4,0.254,762.0,01.16,0.508
2016-05-19 00:02:00,1798E-3,5C000400,-0724,0834,12248,028.5,045.4,0.254,762.0,01.16,0.508
2016-05-19 00:03:00,1830E-3,5C000400,-0724,0834,12036,028.5,045.4,0.254,762.0,01.16,0.508
2016-05-19 00:04:00,1885E-3,5C000400,-0724,0834,12270,028.5,045.4,0.254,762.0,01.16,0.508
2016-05-19 00:05:00,1862E-3,5C000400,-0724,0835,12052,028.5,045.4,0.254,762.0,01.16,0.508
2016-05-19 00:06:00,1966E-3,5C000400,-0724,0833,12260,028.5,045.4,0.254,762.0,01.16,0.508
2016-05-19 00:07:00,1826E-3,5C000400,-0724,0834,12236,028.5,045.4,0.254,762.0,01.16,0.508
2016-05-19 00:08:00,1879E-3,5C000400,-0724,0834,12119,028.5,045.4,0.254,761.9,01.16,0.508
2016-05-19 00:09:00,1700E-3,5C000400,-0724,0834,12274,028.5,045.5,0.255,761.9,01.16,0.508
2016-05-19 00:10:00,1972E-3,5C000400,-0724,0834,12062,028.5,045.4,0.254,761.9,01.16,0.508
2016-05-19 00:11:00,1716E-3,5C000400,-0724,0834,12173,028.5,045.4,0.254,761.9,01.16,0.508
2016-05-19 00:12:00,1858E-3,5C000400,-0724,0834,12072,028.5,045.4,0.254,762.0,01.16,0.508
2016-05-19 00:13:00,1863E-3,5C000400,-0724,0834,12168,028.5,045.4,0.254,762.0,01.16,0.508
2016-05-19 00:14:00,1834E-3,5C000400,-0724,0834,12186,028.5,045.4,0.254,762.0,01.16,0.508
2016-05-19 00:15:00,1830E-3,5C000400,-0724,0833,12147,028.6,045.4,0.254,762.0,01.16,0.508
2016-05-19 00:16:00,1863E-3,5C000400,-0724,0834,12067,028.6,045.5,0.254,762.0,01.16,0.508
2016-05-19 00:17:00,1883E-3,5C000400,-0724,0834,12135,028.6,045.4,0.254,762.0,01.16,0.508
2016-05-19 00:18:00,1801E-3,5C000400,-0724,0833,12238,028.6,045.5,0.254,762.0,01.16,0.508
2016-05-19 00:19:00,1780E-3,5C000400,-0724,0834,12107,028.6,045.4,0.254,761.9,01.16,0.508
2016-05-19 00:20:00,1847E-3,5C000400,-0724,0834,12300,028.6,045.5,0.254,761.9,01.16,0.508
2016-05-19 00:21:00,1834E-3,5C000400,-0724,0834,12003,028.6,045.5,0.254,761.9,01.16,0.508
2016-05-19 00:22:00,1780E-3,5C000400,-0724,0834,12277,028.6,045.4,0.254,761.9,01.16,0.508
2016-05-19 00:23:00,1839E-3,5C000400,-0724,0833,12159,028.6,045.4,0.254,761.9,01.16,0.508
2016-05-19 00:24:00,1958E-3,5C000400,-0724,0834,12078,028.7,045.4,0.254,761.9,01.16,0.508
2016-05-19 00:25:00,1981E-3,5C000400,-0724,0834,12205,028.6,045.5,0.254,761.9,01.16,0.508
2016-05-19 00:26:00,1752E-3,5C000400,-0724,0833,12096,028.7,045.5,0.254,761.9,01.16,0.508
2016-05-19 00:27:00,1966E-3,5C000400,-0724,0834,12161,028.7,045.5,0.254,761.9,01.16,0.508
2016-05-19 00:28:00,1928E-3,5C000400,-0724,0834,12236,028.7,045.4,0.254,761.9,01.16,0.508
2016-05-19 00:29:00,1813E-3,5C000400,-0724,0833,11993,028.7,045.4,0.254,762.0,01.16,0.508
2016-05-19 00:30:00,1892E-3,5C000400,-0724,0834,12192,028.7,045.4,0.254,762.0,01.16,0.508
2016-05-19 00:31:00,1802E-3,5C000400,-0724,0834,12159,028.7,045.5,0.254,761.9,01.16,0.508
2016-05-19 00:32:00,1882E-3,5C000400,-0724,0834,12095,028.7,045.5,0.254,762.0,01.16,0.508
2016-05-19 00:33:00,1775E-3,5C000400,-0724,0834,12178,028.7,045.4,0.254,762.0,01.16,0.508
2016-05-19 00:34:00,1820E-3,5C000400,-0724,0833,12049,028.7,045.4,0.254,762.0,01.16,0.508
2016-05-19 00:35:00,1724E-3,5C000400,-0724,0834,12117,028.7,045.4,0.254,761.9,01.16,0.508
2016-05-19 00:36:00,1871E-3,5C000400,-0724,0834,12183,028.7,045.5,0.254,761.9,01.16,0.508
2016-05-19 00:37:00,1868E-3,5C000400,-0724,0834,12138,028.8,045.5,0.254,761.9,01.16,0.508
2016-05-19 00:38:00,1805E-3,5C000400,-0724,0834,12119,028.7,045.4,0.254,761.9,01.16,0.508
2016-05-19 00:39:00,1877E-3,5C000400,-0724,0834,12160,028.8,045.5,0.254,761.9,01.16,0.508
2016-05-19 00:40:00,1805E-3,5C000400,-0724,0834,12232,028.8,045.5,0.254,761.9,01.16,0.508
2016-05-19 00:41:00,1936E-3,5C000400,-0724,0834,12033,028.8,045.4,0.253,761.9,01.16,0.508
2016-05-19 00:42:00,1880E-3,5C000400,-0724,0834,12243,028.8,045.4,0.254,761.9,01.16,0.508
2016-05-19 00:43:00,2000E-3,5C000400,-0724,0834,12187,028.8,045.4,0.254,761.9,01.16,0.508
2016-05-19 00:44:00,1857E-3,5C000400,-0724,0834,12294,028.8,045.4,0.253,761.9,01.16,0.508
2016-05-19 00:45:00,1768E-3,5C000400,-0724,0834,12060,028.8,045.5,0.254,761.9,01.16,0.508
2016-05-19 00:46:00,1834E-3,5C000400,-0724,0834,12167,028.8,045.5,0.254,761.9,01.16,0.508
2016-05-19 00:47:00,1780E-3,5C000400,-0724,0835,12123,028.9,045.5,0.254,761.9,01.16,0.508
2016-05-19 00:48:00,1772E-3,5C000400,-0724,0833,12141,028.9,045.4,0.254,761.9,01.16,0.508
2016-05-19 00:49:00,1911E-3,5C000400,-0724,0834,12109,028.9,045.4,0.254,761.9,01.16,0.508
2016-05-19 00:50:00,1849E-3,5C000400,-0724,0834,12117,028.9,045.5,0.254,762.0,01.16,0.508
2016-05-19 00:51:00,1832E-3,5C000400,-0724,0834,12133,028.9,045.5,0.253,762.0,01.16,0.508
2016-05-19 00:52:00,1932E-3,5C000400,-0724,0834,12167,028.9,045.5,0.254,762.0,01.16,0.508
2016-05-19 00:53:00,1780E-3,5C000400,-0724,0834,12051,028.9,045.5,0.254,762.0,01.16,0.508
2016-05-19 00:54:00,1761E-3,5C000400,-0724,0834,12118,028.9,045.5,0.253,762.0,01.16,0.508
2016-05-19 00:55:00,1941E-3,5C000400,-0724,0833,12085,028.9,045.4,0.253,762.0,01.16,0.508
2016-05-19 00:56:00,1759E-3,5C000400,-0724,0834,12142,028.9,045.5,0.254,762.0,01.16,0.508
2016-05-19 00:57:00,1887E-3,5C000400,-0724,0834,12144,029.0,045.5,0.254,762.0,01.16,0.508
2016-05-19 00:58:00,1889E-3,5C000400,-0724,0834,12239,028.9,045.4,0.253,762.0,01.16,0.508
2016-05-19 00:59:00,1890E-3,5C000400,-0724,0835,12379,029.0,045.5,0.254,762.0,01.16,0.508
2016-05-19 01:00:00,1869E-3,5C000400,-0724,0834,12193,029.0,045.5,0.254,762.0,01.16,0.508
2016-05-19 01:01:00,1779E-3,5C000400,-0724,0834,12294,029.0,045.5,0.253,762.0,01.16,0.508
2016-05-19 01:02:00,1756E-3,5C000400,-0724,0834,12216,029.0,045.5,0.253,762.0,01.16,0.508
2016-05-19 01:03:00,1899E-3,5C000400,-0724,0835,12112,029.0,045.5,0.254,762.0,01.16,0.508
2016-05-19 01:04:00,1871E-3,5C000400,-0724,0834,11992,029.0,045.5,0.253,762.0,01.16,0.508
2016-05-19 01:05:00,1754E-3,5C000400,-0724,0833,12204,029.0,045.5,0.253,762.0,01.16,0.508
2016-05-19 01:06:00,2008E-3,5C000400,-0724,0833,12104,029.0,045.5,0.253,762.0,01.16,0.508
2016-05-19 01:07:00,1813E-3,5C000400,-0724,0834,12306,029.0,045.5,0.253,762.0,01.16,0.508
2016-05-19 01:08:00,1890E-3,5C000400,-0724,0834,12170,029.1,045.5,0.253,761.9,01.16,0.508
2016-05-19 01:09:00,1902E-3,5C000400,-0724,0833,12041,029.1,045.5,0.254,761.9,01.16,0.508
2016-05-19 01:10:00,2008E-3,5C000400,-0724,0834,12158,029.1,045.5,0.254,761.9,01.16,0.508
2016-05-19 01:11:00,1866E-3,5C000400,-0724,0834,12152,029.1,045.5,0.253,761.9,01.16,0.508
2016-05-19 01:12:00,1791E-3,5C000400,-0724,0834,11943,029.1,045.5,0.253,762.0,01.16,0.508
2016-05-19 01:13:00,1687E-3,5C000400,-0724,0834,12156,029.1,045.5,0.253,761.9,01.16,0.508
2016-05-19 01:14:00,1807E-3,5C000400,-0724,0833,12075,029.1,045.5,0.253,761.9,01.16,0.508
2016-05-19 01:15:00,2000E-3,5C000400,-0724,0834,12063,029.1,045.5,0.253,761.9,01.16,0.508
2016-05-19 01:16:00,1861E-3,5C000400,-0724,0834,12131,029.1,045.4,0.253,761.9,01.16,0.508
2016-05-19 01:17:00,1881E-3,5C000400,-0724,0834,12100,029.1,045.5,0.253,761.9,01.16,0.508
2016-05-19 01:18:00,1854E-3,5C000400,-0724,0834,12133,029.1,045.5,0.253,761.9,01.16,0.508
2016-05-19 01:19:00,1793E-3,5C000400,-0724,0833,12153,029.2,045.5,0.253,761.9,01.16,0.508
2016-05-19 01:20:00,1844E-3,5C000400,-0724,0834,12213,029.2,045.5,0.253,761.9,01.16,0.508
2016-05-19 01:21:00,1762E-3,5C000400,-0724,0833,12073,029.2,045.5,0.253,761.9,01.16,0.508
2016-05-19 01:22:00,1959E-3,5C000400,-0724,0834,12179,029.2,045.5,0.253,761.9,01.16,0.508
2016-05-19 01:23:00,1852E-3,5C000400,-0724,0834,12150,029.2,045.5,0.253,761.9,01.16,0.508
2016-05-19 01:24:00,1850E-3,5C000400,-0724,0834,12178,029.2,045.5,0.253,761.9,01.16,0.508
2016-05-19 01:25:00,1877E-3,5C000400,-0724,0834,12079,029.3,045.5,0.253,761.9,01.16,0.508
2016-05-19 01:26:00,1779E-3,5C000400,-0724,0835,12349,029.2,045.5,0.253,761.8,01.16,0.508
2016-05-19 01:27:00,1759E-3,5C000400,-0724,0833,12137,029.3,045.5,0.253,761.8,01.16,0.508
2016-05-19 01:28:00,1933E-3,5C000400,-0724,0834,12277,029.3,045.5,0.253,761.8,01.16,0.508
2016-05-19 01:29:00,1818E-3,5C000400,-0724,0834,12262,029.3,045.5,0.253,761.8,01.16,0.508
2016-05-19 01:30:00,1899E-3,5C000400,-0724,0834,12157,029.3,045.5,0.252,761.8,01.16,0.508
2016-05-19 01:31:00,2046E-3,5C000400,-0724,0834,12023,029.3,045.5,0.253,761.8,01.16,0.508
2016-05-19 01:32:00,2012E-3,5C000400,-0724,0834,12174,029.3,045.5,0.253,761.8,01.16,0.508
2016-05-19 01:33:00,1696E-3,5C000400,-0724,0834,12161,029.3,045.5,0.253,761.8,01.16,0.508
2016-05-19 01:34:00,1839E-3,5C000400,-0724,0835,12061,029.3,045.5,0.252,761.8,01.16,0.508
2016-05-19 01:35:00,1713E-3,5C000400,-0724,0834,12120,029.3,045.5,0.253,761.8,01.16,0.508
2016-05-19 01:36:00,1923E-3,5C000400,-0724,0833,12087,029.4,045.5,0.253,761.7,01.16,0.508
2016-05-19 01:37:00,1777E-3,5C000400,-0724,0834,12080,029.4,045.5,0.253,761.7,01.16,0.508
2016-05-19 01:38:00,1821E-3,5C000400,-0724,0833,12245,029.4,045.5,0.252,761.7,01.16,0.508
2016-05-19 01:39:00,1772E-3,5C000400,-0724,0833,12091,029.4,045.5,0.253,761.7,01.16,0.508
2016-05-19 01:40:00,1788E-3,5C000400,-0724,0834,12276,029.4,045.5,0.253,761.8,01.16,0.508
2016-05-19 01:41:00,1824E-3,5C000400,-0724,0834,12039,029.4,045.5,0.253,761.8,01.16,0.508
2016-05-19 01:42:00,1955E-3,5C000400,-0724,0834,12213,029.4,045.5,0.252,761.8,01.16,0.508
2016-05-19 01:43:00,1867E-3,5C000400,-0724,0834,12263,029.4,045.5,0.252,761.7,01.16,0.508
2016-05-19 01:44:00,1768E-3,5C000400,-0724,0834,12153,029.5,045.5,0.253,761.8,01.16,0.508
2016-05-19 01:45:00,1769E-3,5C000400,-0724,0834,12317,029.5,045.5,0.253,761.8,01.16,0.508
2016-05-19 01:46:00,1884E-3,5C000400,-0724,0834,12180,029.5,045.5,0.252,761.7,01.16,0.508
2016-05-19 01:47:00,1821E-3,5C000400,-0724,0834,12090,029.5,045.5,0.252,761.7,01.16,0.508
2016-05-19 01:48:00,1762E-3,5C000400,-0724,0835,12204,029.5,045.5,0.252,761.7,01.16,0.508
2016-05-19 01:49:00,1757E-3,5C000400,-0724,0834,12168,029.5,045.5,0.253,761.7,01.16,0.508
2016-05-19 01:50:00,1938E-3,5C000400,-0724,0834,12209,029.5,045.5,0.253,761.7,01.16,0.508
2016-05-19 01:51:00,1875E-3,5C000400,-0724,0835,12218,029.5,045.5,0.252,761.7,01.16,0.508
2016-05-19 01:52:00,1830E-3,5C000400,-0724,0834,12218,029.5,045.5,0.252,761.7,01.16,0.508
2016-05-19 01:53:00,1957E-3,5C000400,-0724,0834,12102,029.5,045.5,0.252,761.8,01.16,0.508
2016-05-19 01:54:00,1749E-3,5C000400,-0724,0834,12307,029.6,045.5,0.253,761.7,01.16,0.508
2016-05-19 01:55:00,1725E-3,5C000400,-0724,0834,12217,029.6,045.5,0.252,761.7,01.16,0.508
2016-05-19 01:56:00,1874E-3,5C000400,-0724,0833,12068,029.6,045.5,0.252,761.7,01.16,0.508
2016-05-19 01:57:00,1857E-3,5C000400,-0724,0834,12177,029.6,045.5,0.252,761.7,01.16,0.508
2016-05-19 01:58:00,1753E-3,5C000400,-0724,0834,12130,029.6,045.5,0.252,761.7,01.16,0.508
2016-05-19 01:59:00,1724E-3,5C000400,-0724,0835,12090,029.6,045.5,0.252,761.7,01.16,0.508
2016-05-19 02:00:00,1880E-3,5C000400,-0724,0834,12217,029.7,045.5,0.252,761.7,01.16,0.508
2016-05-19 02:01:00,1784E-3,5C000400,-0724,0834,12166,029.7,045.5,0.252,761.7,01.16,0.508
2016-05-19 02:02:00,1965E-3,5C000400,-0724,0834,12118,029.7,045.5,0.252,761.7,01.16,0.508
2016-05-19 02:03:00,1843E-3,5C000400,-0724,0834,12062,029.7,045.5,0.252,761.7,01.16,0.508
2016-05-19 02:04:00,1783E-3,5C000400,-0724,0835,12122,029.7,045.5,0.252,761.7,01.16,0.508
2016-05-19 02:05:00,1866E-3,5C000400,-0724,0834,12016,029.7,045.5,0.252,761.7,01.16,0.508
2016-05-19 02:06:00,1782E-3,5C000400,-0724,0834,12306,029.7,045.5,0.252,761.7,01.16,0.508
2016-05-19 02:07:00,1900E-3,5C000400,-0724,0834,12223,029.7,045.5,0.252,761.7,01.16,0.508
2016-05-19 02:08:00,1903E-3,5C000400,-0724,0834,12226,029.7,045.5,0.253,761.7,01.16,0.508
2016-05-19 02:09:00,1854E-3,5C000400,-0724,0834,12144,029.7,045.5,0.252,761.7,01.16,0.508
2016-05-19 02:10:00,1766E-3,5C000400,-0724,0834,12162,029.8,045.5,0.252,761.7,01.16,0.508
2016-05-19 02:11:00,1851E-3,5C000400,-0724,0834,12072,029.8,045.5,0.252,761.7,01.16,0.508
2016-05-19 02:12:00,1990E-3,5C000400,-0724,0834,12129,029.8,045.5,0.252,761.7,01.16,0.508
2016-05-19 02:13:00,1927E-3,5C000400,-0724,0834,12090,029.8,045.5,0.252,761.7,01.16,0.508
2016-05-19 02:14:00,1874E-3,5C000400,-0724,0834,12185,029.8,045.5,0.252,761.7,01.16,0.508
2016-05-19 02:15:00,1893E-3,5C000400,-0724,0835,12174,029.8,045.5,0.252,761.8,01.16,0.508
2016-05-19 02:16:00,1857E-3,5C000400,-0724,0834,12268,029.8,045.5,0.252,761.7,01.16,0.508
2016-05-19 02:17:00,1876E-3,5C000400,-0724,0835,12056,029.9,045.5,0.252,761.8,01.16,0.508
2016-05-19 02:18:00,1867E-3,5C000400,-0724,0835,12182,029.8,045.5,0.252,761.8,01.16,0.508
2016-05-19 02:19:00,1854E-3,5C000400,-0724,0834,12064,029.9,045.5,0.252,761.7,01.16,0.508
2016-05-19 02:20:00,1787E-3,5C000400,-0724,0834,12193,029.9,045.5,0.251,761.7,01.16,0.508
2016-05-19 02:21:00,1875E-3,5C000400,-0724,0834,12194,029.9,045.5,0.252,761.7,01.16,0.508
2016-05-19 02:22:00,1794E-3,5C000400,-0724,0834,12137,029.9,045.5,0.252,761.8,01.16,0.508
2016-05-19 02:23:00,1761E-3,5C000400,-0724,0834,12169,029.9,045.5,0.252,761.7,01.16,0.508
2016-05-19 02:24:00,1846E-3,5C000400,-0724,0834,12182,029.9,045.5,0.252,761.7,01.16,0.508
2016-05-19 02:25:00,1790E-3,5C000400,-0724,0834,12138,030.0,045.5,0.252,761.7,01.16,0.508
2016-05-19 02:26:00,1734E-3,5C000400,-0724,0834,12109,029.9,045.5,0.251,761.7,01.16,0.508
2016-05-19 02:27:00,1877E-3,5C000400,-0724,0834,12069,030.0,045.5,0.252,761.7,01.16,0.508
2016-05-19 02:28:00,1738E-3,5C000400,-0724,0833,12074,030.0,045.5,0.252,761.7,01.16,0.508
2016-05-19 02:29:00,1775E-3,5C000400,-0724,0834,12088,030.0,045.5,0.252,761.7,01.16,0.508
2016-05-19 02:30:00,2029E-3,5C000400,-0724,0835,12121,030.0,045.5,0.252,761.7,01.16,0.508
2016-05-19 02:31:00,1865E-3,5C000400,-0724,0834,12241,030.0,045.5,0.251,761.7,01.16,0.508
2016-05-19 02:32:00,1806E-3,5C000400,-0724,0835,12128,030.0,045.5,0.251,761.7,01.16,0.508
2016-05-19 02:33:00,1905E-3,5C000400,-0724,0834,12123,030.0,045.5,0.252,761.7,01.16,0.508
2016-05-19 02:34:00,2036E-3,5C000400,-0724,0834,12194,030.0,045.5,0.252,761.7,01.16,0.508
2016-05-19 02:35:00,1845E-3,5C000400,-0724,0834,12052,030.1,045.5,0.252,761.7,01.16,0.508
2016-05-19 02:36:00,1869E-3,5C000400,-0724,0833,12174,030.1,045.5,0.251,761.7,01.16,0.508
2016-05-19 02:37:00,1882E-3,5C000400,-0724,0834,12360,030.1,045.5,0.251,761.7,01.16,0.508
2016-05-19 02:38:00,1767E-3,5C000400,-0724,0834,12187,030.1,045.5,0.251,761.7,01.16,0.508
2016-05-19 02:39:00,1789E-3,5C000400,-0724,0834,12216,030.1,045.5,0.251,761.7,01.16,0.508
2016-05-19 02:40:00,1783E-3,5C000400,-0724,0835,12057,030.1,045.5,0.252,761.7,01.16,0.508
2016-05-19 02:41:00,1765E-3,5C000400,-0724,0834,12270,030.1,045.5,0.252,761.7,01.16,0.508
2016-05-19 02:42:00,1853E-3,5C000400,-0724,0834,12046,030.2,045.5,0.251,761.7,01.16,0.508
2016-05-19 02:43:00,1863E-3,5C000400,-0724,0835,12194,030.2,045.5,0.251,761.7,01.16,0.508
2016-05-19 02:44:00,1876E-3,5C000400,-0724,0835,12228,030.2,045.5,0.251,761.7,01.16,0.508
2016-05-19 02:45:00,1903E-3,5C000400,-0724,0834,12123,030.2,045.5,0.251,761.7,01.16,0.508
2016-05-19 02:46:00,1830E-3,5C000400,-0724,0834,12192,030.2,045.5,0.251,761.7,01.16,0.508
2016-05-19 02:47:00,1896E-3,5C000400,-0724,0835,11962,030.2,045.5,0.251,761.7,01.16,0.508
2016-05-19 02:48:00,1733E-3,5C000400,-0724,0834,12089,030.2,045.5,0.251,761.7,01.16,0.508
2016-05-19 02:49:00,1765E-3,5C000400,-0724,0835,12225,030.2,045.5,0.251,761.7,01.16,0.508
2016-05-19 02:50:00,1868E-3,5C000400,-0724,0834,12109,030.2,045.5,0.251,761.7,01.16,0.508
2016-05-19 02:51:00,1827E-3,5C000400,-0724,0835,11975,030.3,045.5,0.251,761.7,01.16,0.508
2016-05-19 02:52:00,1847E-3,5C000400,-0724,0835,12106,030.3,045.5,0.251,761.7,01.16,0.508
2016-05-19 02:53:00,1866E-3,5C000400,-0724,0835,12142,030.3,045.5,0.251,761.7,01.16,0.508
2016-05-19 02:54:00,1819E-3,5C000400,-0724,0834,12151,030.3,045.5,0.251,761.7,01.16,0.508
2016-05-19 02:55:00,1776E-3,5C000400,-0724,0834,12089,030.3,045.5,0.251,761.7,01.16,0.508
2016-05-19 02:56:00,1920E-3,5C000400,-0724,0834,12154,030.3,045.5,0.251,761.7,01.16,0.508
2016-05-19 02:57:00,1862E-3,5C000400,-0724,0835,12133,030.3,045.5,0.251,761.7,01.16,0.508
2016-05-19 02:58:00,1869E-3,5C000400,-0724,0834,12164,030.3,045.5,0.251,761.7,01.16,0.508
2016-05-19 02:59:00,1847E-3,5C000400,-0724,0834,12316,030.4,045.5,0.251,761.7,01.16,0.508
2016-05-19 03:00:00,1898E-3,5C000400,-0724,0834,12085,030.4,045.5,0.251,761.7,01.16,0.508
2016-05-19 03:01:00,1771E-3,5C000400,-0724,0835,12164,030.4,045.5,0.251,761.7,01.16,0.508
2016-05-19 03:02:00,1859E-3,5C000400,-0724,0834,12093,030.4,045.5,0.251,761.7,01.16,0.508
2016-05-19 03:03:00,1870E-3,5C000400,-0724,0835,12092,030.4,045.5,0.251,761.7,01.16,0.508
2016-05-19 03:04:00,1831E-3,5C000400,-0724,0834,12011,030.5,045.5,0.251,761.7,01.16,0.508
2016-05-19 03:05:00,1819E-3,5C000400,-0724,0835,12086,030.4,045.5,0.251,761.7,01.16,0.508
2016-05-19 03:06:00,1960E-3,5C000400,-0724,0834,12065,030.4,045.5,0.251,761.7,01.16,0.508
2016-05-19 03:07:00,1807E-3,5C000400,-0724,0834,12168,030.4,045.5,0.251,761.7,01.16,0.508
2016-05-19 03:08:00,1868E-3,5C000400,-0724,0834,12240,030.5,045.5,0.251,761.6,01.16,0.508
2016-05-19 03:09:00,1852E-3,5C000400,-0724,0834,12219,030.5,045.5,0.251,761.6,01.16,0.508
2016-05-19 03:10:00,1849E-3,5C000400,-0724,0834,12192,030.5,045.5,0.251,761.6,01.16,0.508
2016-05-19 03:11:00,1920E-3,5C000400,-0724,0835,12142,030.5,045.5,0.250,761.6,01.16,0.508
2016-05-19 03:12:00,1795E-3,5C000400,-0724,0834,12178,030.5,045.5,0.250,761.7,01.16,0.508
2016-05-19 03:13:00,1900E-3,5C000400,-0724,0835,12238,030.5,045.5,0.251,761.7,01.16,0.508
2016-05-19 03:14:00,1912E-3,5C000400,-0724,0835,12069,030.6,045.5,0.251,761.7,01.16,0.508
2016-05-19 03:15:00,1936E-3,5C000400,-0724,0834,12170,030.6,045.5,0.251,761.7,01.16,0.508
2016-05-19 03:16:00,1867E-3,5C000400,-0724,0835,12177,030.6,045.5,0.251,761.7,01.16,0.508
2016-05-19 03:17:00,1953E-3,5C000400,-0724,0835,12201,030.6,045.5,0.251,761.6,01.16,0.508
2016-05-19 03:18:00,1801E-3,5C000400,-0724,0835,12082,030.6,045.5,0.250,761.6,01.16,0.508
2016-05-19 03:19:00,1889E-3,5C000400,-0724,0834,12204,030.6,045.5,0.250,761.7,01.16,0.508
2016-05-19 03:20:00,1861E-3,5C000400,-0724,0835,12126,030.6,045.5,0.250,761.6,01.16,0.508
2016-05-19 03:21:00,1821E-3,5C000400,-0724,0835,12238,030.6,045.5,0.250,761.6,01.16,0.508
2016-05-19 03:22:00,1900E-3,5C000400,-0724,0834,12085,030.6,045.5,0.250,761.7,01.16,0.508
2016-05-19 03:23:00,1769E-3,5C000400,-0724,0834,12192,030.6,045.5,0.251,761.7,01.16,0.508
2016-05-19 03:24:00,1887E-3,5C000400,-0724,0834,12063,030.7,045.5,0.251,761.6,01.16,0.508
2016-05-19 03:25:00,1800E-3,5C000400,-0724,0834,12070,030.7,045.5,0.250,761.7,01.16,0.508
2016-05-19 03:26:00,1826E-3,5C000400,-0724,0834,12143,030.7,045.5,0.250,761.7,01.16,0.508
2016-05-19 03:27:00,1735E-3,5C000400,-0724,0834,12211,030.7,045.5,0.250,761.7,01.16,0.508
2016-05-19 03:28:00,1904E-3,5C000400,-0724,0835,12004,030.7,045.5,0.250,761.6,01.16,0.508
2016-05-19 03:29:00,1844E-3,5C000400,-0724,0834,12168,030.7,045.5,0.250,761.7,01.16,0.508
2016-05-19 03:30:00,1952E-3,5C000400,-0724,0835,12078,030.7,045.5,0.250,761.7,01.16,0.508
2016-05-19 03:31:00,1932E-3,5C000400,-0724,0836,12057,030.8,045.5,0.250,761.7,01.16,0.508
2016-05-19 03:32:00,1806E-3,5C000400,-0724,0834,12204,030.8,045.5,0.250,761.7,01.16,0.508
2016-05-19 03:33:00,1816E-3,5C000400,-0724,0834,12237,030.8,045.5,0.250,761.7,01.16,0.508
2016-05-19 03:34:00,1880E-3,5C000400,-0724,0834,12063,030.8,045.5,0.250,761.7,01.16,0.508
2016-05-19 03:35:00,1797E-3,5C000400,-0724,0835,12189,030.8,045.5,0.250,761.7,01.16,0.508
2016-05-19 03:36:00,1835E-3,5C000400,-0724,0835,12145,030.8,045.5,0.250,761.7,01.16,0.508
2016-05-19 03:37:00,1905E-3,5C000400,-0724,0834,12114,030.9,045.5,0.250,761.7,01.16,0.508
2016-05-19 03:38:00,1947E-3,5C000400,-0724,0835,12056,030.9,045.5,0.250,761.7,01.16,0.508
2016-05-19 03:39:00,1782E-3,5C000400,-0724,0834,12139,030.9,045.5,0.250,761.7,01.16,0.508
2016-05-19 03:40:00,1995E-3,5C000400,-0724,0834,12140,030.9,045.5,0.250,761.7,01.16,0.508
2016-05-19 03:41:00,1973E-3,5C000400,-0724,0835,12182,030.9,045.5,0.250,761.7,01.16,0.508
2016-05-19 03:42:00,1799E-3,5C000400,-0724,0835,12139,030.9,045.5,0.250,761.7,01.16,0.508
2016-05-19 03:43:00,1962E-3,5C000400,-0724,0835,12223,030.9,045.5,0.250,761.7,01.16,0.508
2016-05-19 03:44:00,1944E-3,5C000400,-0724,0834,12167,030.9,045.5,0.250,761.7,01.16,0.508
2016-05-19 03:45:00,1815E-3,5C000400,-0724,0835,12122,030.9,045.5,0.250,761.6,01.16,0.508
2016-05-19 03:46:00,1885E-3,5C000400,-0724,0835,12039,030.9,045.5,0.250,761.7,01.16,0.508
2016-05-19 03:47:00,1904E-3,5C000400,-0724,0834,12174,030.9,045.5,0.250,761.7,01.16,0.508
2016-05-19 03:48:00,2047E-3,5C000400,-0724,0834,12027,031.0,045.5,0.250,761.7,01.16,0.508
2016-05-19 03:49:00,1879E-3,5C000400,-0724,0834,12169,031.0,045.5,0.250,761.7,01.16,0.508
2016-05-19 03:50:00,1950E-3,5C000400,-0724,0835,12108,031.0,045.5,0.250,761.7,01.16,0.508
2016-05-19 03:51:00,1778E-3,5C000400,-0724,0835,12132,031.0,045.5,0.250,761.7,01.16,0.508
2016-05-19 03:52:00,1886E-3,5C000400,-0724,0835,12207,031.0,045.5,0.250,761.7,01.16,0.508
2016-05-19 03:53:00,1835E-3,5C000400,-0724,0834,12085,031.0,045.5,0.250,761.6,01.16,0.508
2016-05-19 03:54:00,2022E-3,5C000400,-0724,0833,12027,031.0,045.5,0.250,761.6,01.16,0.508
2016-05-19 03:55:00,1903E-3,5C000400,-0724,0835,12277,031.0,045.5,0.250,761.6,01.16,0.508
2016-05-19 03:56:00,1986E-3,5C000400,-0724,0835,12270,031.0,045.5,0.250,761.7,01.16,0.508
2016-05-19 03:57:00,1868E-3,5C000400,-0724,0834,11975,031.1,045.5,0.250,761.6,01.16,0.508
2016-05-19 03:58:00,1876E-3,5C000400,-0724,0835,12252,031.1,045.5,0.249,761.7,01.16,0.508
2016-05-19 03:59:00,1788E-3,5C000400,-0724,0835,12222,031.1,045.5,0.249,761.6,01.16,0.508
2016-05-19 04:00:00,1833E-3,5C000400,-0724,0834,12267,031.1,045.5,0.250,761.7,01.16,0.508
2016-05-19 04:01:00,1705E-3,5C000400,-0724,0835,12069,031.1,045.5,0.250,761.7,01.16,0.508
2016-05-19 04:02:00,1979E-3,5C000400,-0724,0836,12122,031.1,045.5,0.250,761.7,01.16,0.508
2016-05-19 04:03:00,1771E-3,5C000400,-0724,0835,12125,031.1,045.5,0.250,761.7,01.16,0.508
2016-05-19 04:04:00,1768E-3,5C000400,-0724,0834,12195,031.1,045.5,0.250,761.7,01.16,0.508
2016-05-19 04:05:00,1833E-3,5C000400,-0724,0835,12212,031.1,045.5,0.250,761.7,01.16,0.508
2016-05-19 04:06:00,1853E-3,5C000400,-0724,0835,12225,031.1,045.5,0.250,761.7,01.16,0.508
2016-05-19 04:07:00,1865E-3,5C000400,-0724,0834,12153,031.1,045.5,0.250,761.7,01.16,0.508
2016-05-19 04:08:00,1727E-3,5C000400,-0724,0835,12156,031.2,045.5,0.250,761.6,01.16,0.508
2016-05-19 04:09:00,1796E-3,5C000400,-0724,0834,12286,031.2,045.5,0.250,761.6,01.16,0.508
2016-05-19 04:10:00,1907E-3,5C000400,-0724,0835,12336,031.2,045.5,0.250,761.6,01.16,0.508
2016-05-19 04:11:00,2049E-3,5C000400,-0724,0835,12078,031.2,045.5,0.249,761.6,01.16,0.508
2016-05-19 04:12:00,1893E-3,5C000400,-0724,0835,12132,031.2,045.5,0.249,761.7,01.16,0.508
2016-05-19 04:13:00,1841E-3,5C000400,-0724,0835,12253,031.2,045.5,0.250,761.7,01.16,0.508
2016-05-19 04:14:00,1819E-3,5C000400,-0724,0835,12258,031.2,045.5,0.250,761.7,01.16,0.508
2016-05-19 04:15:00,1781E-3,5C000400,-0724,0835,12228,031.2,045.5,0.250,761.6,01.16,0.508
2016-05-19 04:16:00,1852E-3,5C000400,-0724,0835,12107,031.2,045.5,0.250,761.6,01.16,0.508
2016-05-19 04:17:00,1826E-3,5C000400,-0724,0834,12206,031.3,045.5,0.250,761.6,01.16,0.508
2016-05-19 04:18:00,1913E-3,5C000400,-0724,0834,12237,031.3,045.5,0.249,761.6,01.16,0.508
2016-05-19 04:19:00,1843E-3,5C000400,-0724,0834,11996,031.3,045.5,0.249,761.6,01.16,0.508
2016-05-19 04:20:00,1841E-3,5C000400,-0724,0835,12131,031.3,045.5,0.249,761.7,01.16,0.508